Racecast

Ajani Lewis

RPM Legacy (CA) · - · PAC · Compare head to head

Athlete rating 132.2 2016 TF season
Best race 134.8 TF
Races 90
Seasons 4 2014 — 2017
Rating scale ?
Speed rating — all races

Track & Field

TF speed rating

2017 TF

RPM Legacy (CA) · Grade -

Date Meet Event Result Place Rating Difficulty PR/SR Flags
2017-07-09 USATF Region 14 Junior Olympic Championships 200m 29.64 13th · 2nd on team -0.028
2017-07-09 USATF Region 14 Junior Olympic Championships 100m 14.28 5th · 1st on team -0.028
2017-07-09 USATF Region 14 Junior Olympic Championships 100m 14.29 6th · 2nd on team -0.028
2017-07-09 USATF Region 14 Junior Olympic Championships 200m 29.42 8th · 1st on team -0.028 ★PR SR
2017-07-09 USATF Region 14 Junior Olympic Championships 400m 1:12.46 5th · 2nd on team -0.028
2017-06-17 Tommie Smith Youth Meet 400m 1:07.4 1st · 1st on team -0.036 SR
2017-06-17 Tommie Smith Youth Meet 200m 29.71 1st · 1st on team -0.036
2017-06-17 Tommie Smith Youth Meet 100m 14.17 2nd · 1st on team -0.036 ★PR SR
2017-06-03 M.P. Striders USATF PA Youth Sectionals 100m 14.38 2nd · 1st on team -0.019
2017-06-03 M.P. Striders USATF PA Youth Sectionals 200m 29.58 2nd · 1st on team -0.019 PR SR
2017-06-03 M.P. Striders USATF PA Youth Sectionals 400m 1:08.88 3rd · 2nd on team -0.019
2017-05-07 Hercules/Running Rebels USATF PA Youth T&F 100m 14.38 11th · 1st on team -0.038 PR SR
2017-05-07 Hercules/Running Rebels USATF PA Youth T&F 400m 1:10.08 3rd · 1st on team -0.038
2017-04-29 RETC USATF PA Youth T&F 400m 1:08.87 3rd · 1st on team -0.024 SR
2017-04-29 RETC USATF PA Youth T&F 100m 14.67 6th · 1st on team -0.024 PR SR
2017-04-29 RETC USATF PA Youth T&F 200m 29.77 5th · 1st on team -0.024 PR SR

2016 TF 128.2

RPM Legacy (CA) · Grade -

Date Meet Event Result Place Rating Difficulty PR/SR Flags
2016-07-31 USATF National Junior Olympic Championships 400m 1:10.48 76th · 1st on team +0.012
2016-06-12 USATF Pacific Association Youth Championship 400m 1:10.94 7th · 1st on team -0.035
2016-06-12 USATF Pacific Association Youth Championship 200m 30.75 18th · 1st on team -0.035
2016-06-12 USATF Pacific Association Youth Championship 800m 2:40.3 7th · 1st on team 130.4 -0.035
2016-06-04 M.P. Striders USATF Youth T&F Sectionals 400m 1:06.85 3rd · 1st on team -0.019 ★PR SR
2016-06-04 M.P. Striders USATF Youth T&F Sectionals 800m 2:45.77 2nd · 1st on team 128.1 -0.019
2016-06-04 M.P. Striders USATF Youth T&F Sectionals 200m 30.03 4th · 1st on team -0.019 PR SR
2016-05-15 3M USATF Youth T&F Meet 400m 1:09.89 7th · 1st on team -0.028 PR SR
2016-05-15 3M USATF Youth T&F Meet 200m 30.24 17th · 1st on team -0.028 PR SR
2016-05-15 3M USATF Youth T&F Meet 800m 2:36.44 5th · 1st on team 134.8 -0.028 ★PR ★R SR RSR
2016-04-09 Contra Costa Cheetahs Invitational 800m 2:58.91 9th · 1st on team 119.3 -0.017 R SR RSR
2016-04-02 Sac Speed Factory USATF Youth T&F Meet 100m 14.86 16th · 1st on team -0.033 PR SR
2016-04-02 Sac Speed Factory USATF Youth T&F Meet 200m 31.03 13th · 1st on team -0.033 SR
2016-04-02 Sac Speed Factory USATF Youth T&F Meet 400m 1:11.5 10th · 1st on team -0.033 SR

2015 TF 100.4

RPM Legacy (CA) · Grade -

Date Meet Event Result Place Rating Difficulty PR/SR Flags
2015-06-28 USATF Region 14 Junior Olympic Championships 200m 31.47 2nd · 1st on team -0.031
2015-06-28 USATF Region 14 Junior Olympic Championships 400m 1:13.04 2nd · 1st on team -0.031
2015-06-28 USATF Region 14 Junior Olympic Championships 100m 15.65 2nd · 1st on team -0.031
2015-06-21 USATF Pacific Association Junior Olympic Championships 100m 15.42 6th · 2nd on team -0.031
2015-06-21 USATF Pacific Association Junior Olympic Championships 400m 1:13.23 4th · 2nd on team -0.031
2015-06-21 USATF Pacific Association Junior Olympic Championships 400m 1:11.22 1st · 1st on team -0.031 PR SR
2015-06-21 USATF Pacific Association Junior Olympic Championships 200m 33.27 10th · 2nd on team -0.031
2015-06-21 USATF Pacific Association Junior Olympic Championships 200m 31.14 1st · 1st on team -0.031
2015-06-21 USATF Pacific Association Junior Olympic Championships 100m 15.16 3rd · 1st on team -0.031 PR SR
2015-05-31 PAC (Pacific Association Youth Champions 200m 31.88 8th · 2nd on team -0.024
2015-05-31 PAC (Pacific Association Youth Champions 400m 1:16.18 3rd · 1st on team -0.024
2015-05-31 PAC (Pacific Association Youth Champions 200m 30.93 2nd · 1st on team -0.024 PR SR
2015-05-31 PAC (Pacific Association Youth Champions 100m 15.5 6th · 1st on team -0.024
2015-05-23 LA Jets 2015 Invitational 100m 15.9 13th · 1st on team -0.035
2015-05-23 LA Jets 2015 Invitational 100m 16.27 23rd · 2nd on team -0.035
2015-05-23 LA Jets 2015 Invitational 200m 31.2 6th · 1st on team -0.035 PR SR
2015-05-23 LA Jets 2015 Invitational 400m 1:11.3 1st · 1st on team -0.035 PR SR
2015-05-16 3M Track Club Track and Field Invitation 200m 32.2 2nd · 1st on team -0.028
2015-05-16 3M Track Club Track and Field Invitation 100m 16.16 8th · 2nd on team -0.028
2015-05-16 3M Track Club Track and Field Invitation 100m 15.68 5th · 1st on team -0.028
2015-05-16 3M Track Club Track and Field Invitation 400m 1:15.65 3rd · 1st on team -0.028
2015-05-09 Stockton Saints Track Club 100m 15.62 1st · 1st on team -0.022
2015-05-09 Stockton Saints Track Club 400m 1:14.77 2nd · 1st on team -0.022 PR SR
2015-05-09 Stockton Saints Track Club 200m 32.28 1st · 1st on team -0.022
2015-05-02 Running Rebels/Top Pacers Invitational 100m 15.42 4th · 2nd on team -0.038 PR SR
2015-05-02 Running Rebels/Top Pacers Invitational 400m 1:17.45 1st · 1st on team -0.038
2015-05-02 Running Rebels/Top Pacers Invitational 200m 32.74 2nd · 1st on team -0.038
2015-05-02 Running Rebels/Top Pacers Invitational 100m 15.29 2nd · 1st on team -0.038 PR SR
2015-04-25 Revolution Express Track Club 100m 16.27 8th · 1st on team -0.024
2015-04-25 Revolution Express Track Club 400m 1:18.38 3rd · 1st on team -0.024
2015-04-25 Revolution Express Track Club 200m 35.22 7th · 1st on team -0.024
2015-04-18 Shor/Sheppard Invitational 200m 31.74 1st · 1st on team -0.023 PR SR
2015-04-18 Shor/Sheppard Invitational 400m 1:21 2nd · 1st on team -0.023
2015-04-18 Shor/Sheppard Invitational 800m 2:54.34 3rd · 1st on team 105.3 -0.023 PR R SR RSR
2015-03-28 Contra Costa Cheetahs 200m 33.44 3rd · 1st on team -0.017 PR SR
2015-03-28 Contra Costa Cheetahs 800m 3:14.11 8th · 1st on team 95.4 -0.017 PR R SR RSR
2015-03-28 Contra Costa Cheetahs 100m 15.54 6th · 1st on team -0.017 PR SR
2015-03-21 RPM Legacy 400m 1:16.35 1st · 1st on team -0.020 PR SR
2015-03-21 RPM Legacy 100m 16.1 4th · 1st on team -0.020 SR

2014 TF

RPM Legacy (CA) · Grade -

Date Meet Event Result Place Rating Difficulty PR/SR Flags
2014-06-20 USATF Pacific Assoc. Junior Olympics (Top 8) 200m 33.96 21st · 1st on team -0.031
2014-06-20 USATF Pacific Assoc. Junior Olympics (Top 8) 100m 16.11 18th · 1st on team -0.031
2014-06-20 USATF Pacific Assoc. Junior Olympics (Top 8) 400m 1:20.76 18th · 1st on team -0.031 PR SR
2014-05-31 Pacific Association Championships (PAC) 200m 33.86 23rd · 1st on team -0.024 PR SR
2014-05-31 Pacific Association Championships (PAC) 100m 16.09 23rd · 1st on team -0.024
2014-05-31 Pacific Association Championships (PAC) 400m 1:23.3 14th · 1st on team -0.024
2014-05-25 Los Angeles Jets Invitational 200m 33.95 20th · 1st on team -0.027 PR SR
2014-05-25 Los Angeles Jets Invitational 400m 1:23.7 23rd · 1st on team -0.027
2014-05-25 Los Angeles Jets Invitational 100m 16.04 14th · 1st on team -0.027 PR SR
2014-05-18 3M Invitational 100m 16.84 15th · 2nd on team -0.028 PR SR
2014-05-18 3M Invitational 100m 16.64 12th · 1st on team -0.028 PR SR
2014-05-18 3M Invitational 200m 35.34 5th · 1st on team -0.028
2014-05-18 3M Invitational 400m 1:22.69 3rd · 1st on team -0.028 PR SR
2014-04-26 Revolution Express TC 200m 35.17 7th · 1st on team -0.024 PR SR
2014-04-05 Sacramento Speed Showcase 400m 1:25.24 12th · 1st on team -0.033 PR SR
2014-04-05 Sacramento Speed Showcase 200m 36.82 15th · 1st on team -0.033 PR SR
2014-04-05 Sacramento Speed Showcase 100m 18.78 49th · 1st on team -0.033 PR SR
2014-03-22 RPM 100m 18.84 47th · 1st on team -0.012 PR SR
2014-03-01 RETC Practice Meet 200m 45.2 9th · 2nd on team -0.024 PR SR
2014-03-01 RETC Practice Meet 400m 1:38 15th · 2nd on team -0.024 PR SR
2014-03-01 RETC Practice Meet 100m 22.18 19th · 2nd on team -0.024 PR SR